MZU weather

Muzaffarpur Airport
Bihar, India

Public forecast

Using degrees Celsius for public forecast. Weather courtesy of forecast.io.

METAR (pilot weather report)

Closest report is Lok Nayak Jayaprakash Airport, 34.0 nm (62.9 km) SSW. Retrieved 2018/09/24 09:00 UTC (12 minutes ago):

VEPT 240900Z 00000KT 1500 R25/2000 -TSRA SCT016 FEW030CB BKN100 25/25 Q1008 NOSIG

TAF (pilot weather forecast)

Closest forecast is Lok Nayak Jayaprakash Airport, 34.0 nm (62.9 km) SSW. Retrieved 2018/09/24 06:39 UTC (3 hours ago):

TAF VEPT 240500Z 2406/2512 25005KT 4000 HZ FEW020 SCT025 BECMG 2409/2411 5000 HZ/-RA FEW020 FEW030CB BECMG 2415/2417 00000KT 4000 HZ FEW020 SCT250 BECMG 2421/2423 3000 BR/HZ FEW250 BECMG 2504/2506 25005KT 4000 HZ FEW020 SCT025 BECMG 2510/2512 5000 HZ